FW1042 Weather Reports


Display with metric or nautical units.
time (UTC)temp
F
wind
direction
speed
MPH
gust
MPH
rain 1hr
in
rain 24hr
in
rain mn
in
humidity
%
barometer
mb
20260509091804 71 74 0.0 1.0 0.00 0.43 0.00 91 1008.2
20260509091304 71 156 0.0 3.0 0.00 0.43 0.00 91 1008.2
20260509091102 71 0 1.0 4.0 0.00 0.43 0.00 91 1008.5
20260509090301 71 300 1.0 4.0 0.00 0.44 0.00 91 1008.5
20260509085802 71 327 2.0 4.0 0.00 0.45 0.00 91 1008.3
20260509085301 70 311 1.0 4.0 0.00 0.45 0.00 91 1008.0
20260509084806 70 36 2.0 9.0 0.00 0.45 0.00 91 1007.1
20260509084553 70 174 4.0 11.0 0.00 0.45 0.00 91 1006.6
20260509083802 70 86 4.0 11.0 0.00 0.45 0.00 91 1006.5
20260509083302 70 138 4.0 10.0 0.00 0.45 0.00 91 1006.6
20260509082801 70 200 4.0 10.0 0.00 0.45 0.00 91 1006.8
20260509082306 70 186 4.0 9.0 0.00 0.45 0.00 91 1007.0
20260509081802 70 148 4.0 9.0 0.00 0.45 0.00 91 1007.0
20260509081304 70 115 5.0 13.0 0.00 0.45 0.00 91 1007.0
20260509080803 70 153 5.0 13.0 0.00 0.45 0.00 91 1007.0
20260509080303 70 148 4.0 10.0 0.00 0.45 0.00 91 1007.3
20260509075803 70 137 3.0 9.0 0.00 0.45 0.00 91 1007.6
20260509075306 70 155 3.0 10.0 0.00 0.45 0.00 91 1008.1
20260509074802 70 211 3.0 10.0 0.00 0.45 0.00 91 1008.4
20260509074608 70 150 3.0 7.0 0.00 0.45 0.00 91 1008.6
20260509073804 70 191 3.0 8.0 0.00 0.45 0.00 91 1008.6
20260509073259 70 198 4.0 8.0 0.00 0.45 0.00 91 1008.9
20260509072800 70 172 4.0 8.0 0.00 0.45 0.00 91 1009.1
20260509072259 70 155 3.0 8.0 0.00 0.45 0.00 91 1009.4
20260509071759 70 199 3.0 7.0 0.00 0.45 0.00 90 1009.5
20260509071300 70 186 2.0 8.0 0.00 0.45 0.00 90 1009.5
20260509070800 70 176 2.0 8.0 0.00 0.45 0.00 90 1009.6
20260509070304 70 147 2.0 9.0 0.00 0.45 0.00 90 1009.9
20260509065800 70 188 3.0 9.0 0.00 0.45 0.00 90 1009.9
20260509065256 70 196 2.0 8.0 0.00 0.45 0.00 90 1009.9
20260509064756 70 184 2.0 8.0 0.00 0.45 0.00 90 1010.0
20260509064256 70 205 1.0 6.0 0.00 0.45 0.00 89 1010.2
20260509063756 70 206 1.0 6.0 0.00 0.45 0.00 89 1010.1
20260509063256 70 252 2.0 6.0 0.00 0.45 0.00 89 1010.4
20260509062754 70 171 2.0 6.0 0.00 0.45 0.00 89 1010.1
20260509062545 70 154 2.0 8.0 0.00 0.45 0.00 89 1009.9
20260509061754 70 171 2.0 8.0 0.00 0.45 0.00 89 1009.8
20260509061555 70 206 3.0 8.0 0.00 0.45 0.00 88 1009.7
20260509060754 70 154 4.0 10.0 0.00 0.45 0.00 88 1009.8
20260509060253 70 187 4.0 10.0 0.00 0.45 0.00 88 1009.4
20260509055754 70 180 2.0 9.0 0.00 0.45 0.00 88 1009.7
20260509055253 70 188 3.0 7.0 0.00 0.45 0.00 87 1009.8
20260509054754 71 173 2.0 7.0 0.00 0.45 0.00 87 1009.7
20260509054254 71 152 2.0 5.0 0.00 0.45 0.00 86 1009.8
20260509053754 71 159 1.0 4.0 0.00 0.45 0.00 86 1010.1
20260509053253 71 188 0.0 2.0 0.00 0.45 0.00 85 1010.5
20260509052754 71 190 0.0 2.0 0.00 0.45 0.00 85 1010.7
20260509052255 71 186 0.0 2.0 0.00 0.45 0.00 85 1010.9
20260509052140 72 211 1.0 3.0 0.00 0.45 0.00 85 1010.8
20260509052134 71 198 0.0 2.0 0.00 0.45 0.00 85 1010.8
20260509050755 72 194 2.0 5.0 0.00 0.45 0.00 85 1011.1
20260509050255 72 355 3.0 6.0 0.00 0.45 0.00 85 1011.6
20260509050113 71 337 2.0 6.0 0.00 0.45 0.45 85 1011.7
20260509045253 71 351 1.0 5.0 0.00 0.45 0.45 84 1011.5
20260509044754 72 242 1.0 4.0 0.00 0.45 0.45 84 1010.6
20260509044257 72 214 1.0 4.0 0.00 0.45 0.45 84 1010.2
20260509043754 72 150 2.0 6.0 0.00 0.45 0.45 84 1010.0
20260509043253 72 159 3.0 6.0 0.00 0.45 0.45 83 1009.6
20260509042752 72 213 3.0 8.0 0.00 0.45 0.45 83 1009.6
20260509042253 72 197 3.0 8.0 0.00 0.45 0.45 83 1009.5
20260509041753 72 203 2.0 6.0 0.00 0.45 0.45 83 1009.6
20260509041253 72 180 2.0 5.0 0.00 0.45 0.45 83 1009.7
20260509040753 72 173 2.0 8.0 0.00 0.45 0.45 83 1009.9
20260509040553 72 125 2.0 8.0 0.00 0.45 0.45 83 1009.9
20260509040054 72 168 3.0 8.0 0.00 0.45 0.45 83 1009.8
20260509035251 72 185 4.0 8.0 0.00 0.45 0.45 82 1009.4
20260509034751 73 131 4.0 9.0 0.00 0.45 0.45 82 1009.1
20260509034251 73 153 4.0 9.0 0.00 0.45 0.45 82 1009.3
20260509033752 73 107 3.0 7.0 0.00 0.45 0.45 82 1009.3
20260509033251 73 126 2.0 6.0 0.00 0.45 0.45 82 1009.3
20260509032751 73 153 0.0 5.0 0.00 0.45 0.45 82 1009.7
20260509032251 73 28 0.0 0.0 0.00 0.45 0.45 82 1010.4
20260509031751 72 28 0.0 2.0 0.00 0.45 0.45 82 1010.6
20260509031250 72 28 0.0 2.0 0.00 0.45 0.45 82 1010.4
20260509030751 72 38 0.0 2.0 0.00 0.45 0.45 82 1010.4
20260509030255 72 114 0.0 2.0 0.00 0.45 0.45 82 1010.1
20260509025751 72 114 0.0 2.0 0.00 0.45 0.45 82 1009.9
20260509025546 72 98 1.0 3.0 0.00 0.45 0.45 82 1009.9
20260509024751 72 83 1.0 3.0 0.00 0.45 0.45 82 1009.7
20260509024251 72 107 1.0 4.0 0.00 0.45 0.45 82 1009.6
20260509023748 72 146 1.0 4.0 0.00 0.45 0.45 81 1009.4
20260509023239 72 148 0.0 1.0 0.00 0.45 0.45 81 1009.3
20260509022737 72 192 1.0 3.0 0.00 0.45 0.45 81 1009.2
20260509022240 72 194 2.0 4.0 0.00 0.45 0.45 81 1008.8
20260509021737 72 123 2.0 5.0 0.00 0.45 0.45 80 1008.5
20260509021236 72 162 3.0 6.0 0.00 0.45 0.45 80 1008.1
20260509020736 73 90 3.0 6.0 0.00 0.45 0.45 80 1008.1
20260509020238 73 136 3.0 8.0 0.00 0.45 0.45 79 1008.1
20260509015737 73 144 2.0 8.0 0.00 0.45 0.45 79 1008.4
20260509015236 73 158 2.0 6.0 0.00 0.45 0.45 79 1008.4
20260509014736 73 186 3.0 6.0 0.00 0.45 0.45 78 1008.3
20260509014236 73 160 2.0 7.0 0.00 0.45 0.45 78 1008.1
20260509013737 73 156 2.0 7.0 0.00 0.45 0.45 77 1008.0
20260509013237 74 156 2.0 7.0 0.00 0.45 0.45 77 1008.1
20260509012737 74 149 1.0 7.0 0.00 0.45 0.45 77 1008.2
20260509012535 74 157 2.0 5.0 0.00 0.45 0.45 76 1008.3
20260509011737 74 175 2.0 5.0 0.00 0.45 0.45 76 1008.3
20260509011235 74 143 2.0 6.0 0.00 0.45 0.45 75 1008.3
20260509010734 74 150 2.0 6.0 0.00 0.45 0.45 75 1008.4
20260509010235 74 159 3.0 6.0 0.00 0.45 0.45 75 1008.2
20260509005734 74 194 3.0 8.0 0.00 0.45 0.45 75 1008.3
20260509005235 75 177 3.0 8.0 0.00 0.45 0.45 74 1008.2
20260509004734 75 140 3.0 7.0 0.00 0.45 0.45 74 1008.1
20260509004238 75 135 3.0 7.0 0.00 0.45 0.45 73 1008.0
20260509003735 75 182 3.0 7.0 0.00 0.45 0.45 73 1007.8
20260509003230 75 141 3.0 7.0 0.00 0.45 0.45 73 1007.8
20260509002728 76 156 3.0 7.0 0.00 0.45 0.45 72 1007.7
20260509002227 76 128 3.0 7.0 0.00 0.45 0.45 71 1007.8
20260509001726 76 188 3.0 8.0 0.00 0.45 0.45 71 1007.6
20260509001227 76 182 3.0 8.0 0.00 0.45 0.45 70 1007.7
20260509000728 76 173 3.0 8.0 0.00 0.45 0.45 69 1007.6
20260509000227 77 190 3.0 10.0 0.00 0.45 0.45 69 1007.8
20260509000050 77 114 4.0 10.0 0.00 0.45 0.45 69 1007.8
20260508235230 77 173 4.0 9.0 0.00 0.45 0.45 69 1007.8
20260508234725 77 124 4.0 10.0 0.00 0.45 0.45 69 1007.9
20260508234224 77 206 4.0 10.0 0.00 0.45 0.45 69 1008.0
20260508233722 77 167 4.0 9.0 0.00 0.45 0.45 69 1008.1
20260508233223 77 192 4.0 9.0 0.00 0.45 0.45 69 1008.0
20260508232716 77 182 4.0 10.0 0.00 0.45 0.45 68 1008.0
20260508232213 78 170 4.0 10.0 0.00 0.45 0.45 68 1008.0
20260508231715 78 180 4.0 9.0 0.00 0.45 0.45 66 1008.1
20260508231210 79 207 4.0 10.0 0.00 0.45 0.45 65 1008.2
20260508230711 79 190 4.0 10.0 0.00 0.45 0.45 65 1008.2
20260508230211 79 202 4.0 8.0 0.00 0.45 0.45 65 1008.1
20260508225711 79 105 4.0 8.0 0.00 0.45 0.45 65 1008.1
20260508225209 79 140 4.0 11.0 0.00 0.45 0.45 66 1008.1
20260508224710 79 214 4.0 11.0 0.00 0.45 0.45 65 1008.2
20260508224213 79 205 3.0 8.0 0.00 0.45 0.45 64 1008.2
20260508223708 79 217 4.0 9.0 0.00 0.45 0.45 64 1008.3
20260508223209 79 242 4.0 9.0 0.00 0.45 0.45 64 1008.2
20260508222710 80 165 3.0 9.0 0.00 0.45 0.45 63 1008.2
20260508222208 80 194 4.0 10.0 0.00 0.45 0.45 63 1008.4
20260508221702 80 261 4.0 10.0 0.00 0.45 0.45 64 1008.2
20260508221156 80 140 3.0 7.0 0.00 0.45 0.45 64 1008.2
20260508220650 80 190 3.0 9.0 0.00 0.45 0.45 63 1008.2
20260508220150 80 167 4.0 9.0 0.00 0.45 0.45 63 1008.1
20260508215654 80 168 5.0 10.0 0.00 0.45 0.45 64 1008.2
20260508215151 80 183 5.0 10.0 0.00 0.45 0.45 65 1008.1
20260508214651 79 126 5.0 10.0 0.00 0.45 0.45 64 1008.1
20260508214152 80 160 5.0 10.0 0.00 0.45 0.45 64 1008.3
20260508213649 80 149 4.0 9.0 0.00 0.45 0.45 62 1008.3
20260508213149 80 158 4.0 8.0 0.00 0.45 0.45 63 1008.2
20260508212647 80 115 5.0 9.0 0.00 0.45 0.45 63 1008.2
20260508212146 80 156 5.0 11.0 0.00 0.45 0.45 63 1008.3
20260508211646 80 171 4.0 11.0 0.00 0.45 0.45 63 1008.2
20260508211435 80 114 4.0 9.0 0.00 0.45 0.45 63 1008.4
20260508210635 80 144 5.0 12.0 0.00 0.45 0.45 65 1008.4
20260508210129 79 185 5.0 12.0 0.00 0.45 0.45 63 1008.7
20260508205625 79 134 4.0 9.0 0.00 0.45 0.45 64 1008.8
20260508205122 79 186 4.0 10.0 0.00 0.45 0.45 64 1009.1
20260508204922 78 109 4.0 10.0 0.00 0.45 0.45 67 1009.2
20260508204121 76 180 4.0 10.0 0.00 0.45 0.45 67 1009.7
20260508203620 76 156 5.0 13.0 0.00 0.45 0.45 67 1009.9
20260508203119 77 186 5.0 13.0 0.00 0.45 0.45 67 1010.1
20260508202619 77 215 4.0 11.0 0.00 0.45 0.45 66 1010.2
20260508202118 77 207 4.0 11.0 0.00 0.45 0.45 66 1010.2
20260508201617 77 181 4.0 11.0 0.00 0.45 0.45 65 1010.2
20260508201116 78 182 4.0 9.0 0.00 0.45 0.45 64 1010.4
20260508200908 78 156 4.0 9.0 0.00 0.45 0.45 64 1010.4
20260508200115 79 141 4.0 9.0 0.00 0.45 0.45 63 1010.4
20260508195619 79 275 4.0 14.0 0.00 0.45 0.45 62 1010.2
20260508195114 80 215 4.0 14.0 0.00 0.45 0.45 62 1010.5
20260508194609 80 206 4.0 12.0 0.00 0.45 0.45 62 1010.4
20260508194104 80 219 4.0 10.0 0.00 0.45 0.45 60 1010.5
20260508193601 80 178 4.0 14.0 0.00 0.45 0.45 59 1010.6
20260508193100 81 217 3.0 14.0 0.00 0.45 0.45 59 1010.5
20260508192602 81 165 4.0 11.0 0.00 0.45 0.45 60 1010.6
20260508192100 80 180 4.0 10.0 0.00 0.45 0.45 60 1010.6
20260508191903 80 165 4.0 9.0 0.00 0.45 0.45 59 1010.6
20260508191101 81 180 3.0 9.0 0.00 0.45 0.45 58 1010.6
20260508190600 82 190 2.0 9.0 0.00 0.45 0.45 59 1010.6
20260508190101 81 59 2.0 9.0 0.00 0.45 0.45 59 1010.6
20260508185600 81 175 3.0 9.0 0.00 0.45 0.45 59 1010.6
20260508185100 80 212 3.0 10.0 0.00 0.45 0.45 61 1010.7
20260508184600 80 230 3.0 10.0 0.00 0.45 0.45 61 1010.7
20260508184101 79 138 3.0 8.0 0.00 0.45 0.45 61 1010.8
20260508183852 79 147 3.0 11.0 0.00 0.45 0.45 63 1010.7
20260508183350 79 284 3.0 11.0 0.00 0.45 0.45 62 1010.9
20260508182700 79 141 3.0 8.0 0.00 0.45 0.45 63 1011.2
20260508182641 79 206 3.0 8.0 0.00 0.45 0.45 61 1011.1
20260508181853 78 185 2.0 6.0 0.00 0.45 0.45 61 1011.3
20260508181057 78 206 3.0 10.0 0.01 0.45 0.45 62 1011.4
20260508180556 78 197 3.0 10.0 0.01 0.45 0.45 62 1011.6
20260508180059 78 149 3.0 7.0 0.01 0.45 0.45 64 1011.6
20260508175555 78 207 3.0 9.0 0.01 0.45 0.45 64 1011.8
20260508175136 76 157 2.0 5.0 0.01 0.45 0.45 62 1011.9
20260508175124 77 138 3.0 9.0 0.01 0.45 0.45 65 1011.8
20260508174051 76 136 3.0 9.0 0.01 0.45 0.45 62 1011.9
20260508173550 76 150 2.0 9.0 0.01 0.45 0.45 64 1012.0
20260508173051 76 178 2.0 5.0 0.01 0.45 0.45 64 1012.1
20260508172550 76 192 3.0 7.0 0.01 0.45 0.45 64 1012.0
20260508172051 76 160 3.0 7.0 0.01 0.45 0.45 62 1012.3
20260508171549 76 167 3.0 8.0 0.01 0.45 0.45 65 1012.4
20260508171050 75 161 3.0 8.0 0.00 0.44 0.44 64 1012.5
20260508170548 75 147 3.0 10.0 0.00 0.44 0.44 64 1012.7
20260508170048 75 218 4.0 10.0 0.00 0.44 0.44 64 1012.9
20260508165549 74 128 4.0 10.0 0.00 0.44 0.44 63 1012.9
20260508165052 74 180 4.0 10.0 0.00 0.44 0.44 65 1013.2
20260508164549 74 222 4.0 10.0 0.00 0.44 0.44 65 1013.1
20260508164046 74 152 3.0 9.0 0.00 0.44 0.44 66 1013.1
20260508163547 73 169 3.0 8.0 0.00 0.44 0.44 68 1013.2
20260508163047 72 103 3.0 7.0 0.00 0.44 0.44 70 1013.3
20260508162844 71 169 3.0 7.0 0.00 0.44 0.44 70 1013.4
20260508162047 71 169 3.0 8.0 0.00 0.44 0.44 70 1013.4
20260508161835 71 200 3.0 8.0 0.00 0.44 0.44 70 1013.7
20260508161041 70 173 3.0 6.0 0.00 0.44 0.44 71 1013.7
20260508160541 70 185 3.0 8.0 0.00 0.44 0.44 72 1013.9
20260508160040 70 193 3.0 8.0 0.00 0.44 0.44 73 1013.7
20260508155541 69 188 3.0 6.0 0.00 0.44 0.44 75 1013.8
20260508155040 69 157 2.0 6.0 0.00 0.44 0.44 75 1014.0
20260508154540 68 109 2.0 7.0 0.00 0.44 0.44 76 1014.0
20260508154041 68 213 2.0 7.0 0.00 0.44 0.44 75 1013.8
20260508153545 68 159 2.0 6.0 0.00 0.44 0.44 75 1014.0
20260508153329 68 169 2.0 4.0 0.00 0.44 0.44 76 1014.0
20260508152539 68 116 2.0 7.0 0.00 0.44 0.44 76 1014.2
20260508152045 67 199 3.0 7.0 0.00 0.44 0.44 77 1014.2
20260508151536 67 197 3.0 7.0 0.00 0.44 0.44 79 1014.2
20260508151328 67 145 3.0 7.0 0.00 0.44 0.44 82 1014.3
20260508150530 66 200 2.0 7.0 0.00 0.44 0.44 85 1014.1
20260508150030 66 171 2.0 7.0 0.00 0.44 0.44 87 1014.1
20260508145531 65 86 2.0 6.0 0.00 0.44 0.44 89 1014.2
20260508145035 65 128 2.0 6.0 0.00 0.44 0.44 90 1014.2
20260508144531 64 180 2.0 6.0 0.00 0.44 0.44 91 1014.3
20260508144030 63 207 2.0 5.0 0.00 0.44 0.44 92 1014.0
20260508143530 63 174 1.0 5.0 0.00 0.44 0.44 93 1014.5
20260508143331 63 169 0.0 3.0 0.00 0.44 0.44 93 1014.5
20260508142531 63 142 0.0 3.0 0.00 0.44 0.44 93 1014.6
20260508142025 63 222 0.0 2.0 0.00 0.44 0.44 93 1014.6
20260508141524 63 196 1.0 3.0 0.00 0.44 0.44 94 1014.5
20260508141025 63 136 0.0 3.0 0.00 0.44 0.44 94 1014.3
20260508140524 63 170 0.0 2.0 0.00 0.44 0.44 94 1014.5
20260508140022 62 112 0.0 0.0 0.00 0.44 0.44 95 1014.6
20260508135521 62 112 0.0 0.0 0.00 0.44 0.44 94 1014.5
20260508135311 62 112 0.0 1.0 0.00 0.44 0.44 94 1014.5
20260508134520 62 115 0.0 2.0 0.00 0.44 0.44 94 1014.5
20260508134051 61 132 1.0 4.0 0.00 0.44 0.44 95 1014.7
20260508134040 62 108 0.0 2.0 0.00 0.44 0.44 94 1014.5
20260508133930 62 161 0.0 2.0 0.00 0.44 0.44 95 1014.5
20260508133827 61 132 0.0 1.0 0.00 0.44 0.44 94 1014.5
20260508133725 61 132 1.0 3.0 0.00 0.44 0.44 94 1014.3
20260508132016 61 132 1.0 4.0 0.00 0.44 0.44 95 1014.7
20260508131516 61 183 2.0 5.0 0.00 0.44 0.44 94 1014.6
20260508131016 61 151 2.0 5.0 0.00 0.44 0.44 94 1014.2
20260508130516 61 155 2.0 4.0 0.00 0.44 0.44 95 1014.4
20260508130017 61 168 2.0 6.0 0.00 0.44 0.44 94 1014.5
20260508125516 61 145 2.0 6.0 0.00 0.44 0.44 94 1014.2
20260508125015 61 158 1.0 4.0 0.00 0.44 0.44 94 1014.3
20260508124514 61 150 1.0 4.0 0.00 0.44 0.44 94 1014.6
20260508124014 61 190 1.0 4.0 0.00 0.44 0.44 94 1014.7
20260508123514 60 148 0.0 2.0 0.00 0.44 0.44 94 1014.4
20260508123316 60 80 1.0 2.0 0.00 0.44 0.44 94 1014.5
20260508122513 60 117 1.0 5.0 0.00 0.44 0.44 94 1014.9
20260508122014 60 206 1.0 5.0 0.01 0.44 0.44 94 1015.2
20260508121514 60 150 0.0 3.0 0.08 0.44 0.44 94 1014.7
20260508121014 60 156 0.0 1.0 0.08 0.44 0.44 94 1014.6
20260508120515 60 134 0.0 0.0 0.08 0.44 0.44 94 1014.7
20260508120015 60 134 0.0 0.0 0.08 0.44 0.44 94 1014.7
20260508115515 60 134 0.0 1.0 0.09 0.44 0.44 94 1014.8
20260508115312 60 134 0.0 1.0 0.11 0.44 0.44 94 1014.6
20260508114514 60 227 0.0 1.0 0.12 0.44 0.44 93 1014.5
20260508114317 60 231 0.0 2.0 0.14 0.44 0.44 93 1014.7
20260508113508 60 231 1.0 4.0 0.14 0.44 0.44 93 1014.5
20260508113008 60 227 2.0 7.0 0.16 0.44 0.44 93 1014.4
20260508112508 60 172 3.0 7.0 0.21 0.44 0.44 93 1014.2
20260508112009 60 168 2.0 7.0 0.34 0.43 0.44 93 1014.1
20260508111803 60 137 1.0 3.0 0.34 0.36 0.38 93 1014.1
20260508111008 60 206 1.0 3.0 0.34 0.36 0.36 92 1014.5
20260508110506 60 142 1.0 4.0 0.34 0.36 0.36 92 1013.8
20260508110115 60 185 3.0 6.0 0.33 0.35 0.36 92 1013.9
20260508110056 60 157 2.0 6.0 0.34 0.36 0.36 92 1013.9
20260508105301 61 188 3.0 5.0 0.31 0.33 0.33 91 1014.1
20260508104505 61 150 1.0 5.0 0.30 0.32 0.32 91 1014.7
20260508104006 61 192 1.0 3.0 0.28 0.30 0.31 91 1015.1
20260508103506 61 174 1.0 3.0 0.28 0.30 0.30 90 1014.9
20260508103005 61 186 1.0 5.0 0.26 0.28 0.28 90 1014.5
20260508102506 61 155 2.0 5.0 0.21 0.23 0.23 90 1014.3
20260508102006 62 138 0.0 4.0 0.07 0.09 0.12 90 1014.1
20260508101856 61 142 1.0 4.0 0.00 0.02 0.02 90 1014.3
20260508101852 61 238 0.0 3.0 0.00 0.02 0.03 90 1014.7
20260508100807 61 185 1.0 4.0 0.00 0.02 0.02 90 1014.4
20260508100307 61 182 1.0 4.0 0.02 0.02 0.02 90 1013.7
20260508095506 61 197 1.0 4.0 0.02 0.02 0.02 90 1013.5
20260508095006 61 169 1.0 4.0 0.02 0.02 0.02 90 1013.4
20260508094504 61 151 1.0 4.0 0.02 0.02 0.02 90 1013.4
20260508094004 61 174 1.0 2.0 0.02 0.02 0.02 89 1013.5
20260508093506 61 149 1.0 2.0 0.02 0.02 0.02 89 1013.5
20260508093004 61 122 1.0 3.0 0.02 0.02 0.02 89 1013.5
20260508092503 61 153 1.0 4.0 0.02 0.02 0.02 89 1013.5
20260508092002 61 193 2.0 4.0 0.02 0.02 0.02 89 1013.7